{"data":{"norad_id":68604,"epoch":"2026-09-20T00:35:15.154080Z","epoch_age_seconds":84833,"freshness":"FRESH","line1":"1 68604U 26073C   26263.02448095  .00015087  00000+0  46842-3 0  9990","line2":"2 68604  97.2832 100.9892 0000597  33.5202 326.6078 15.33464092 25660","mean_motion":15.33464092,"eccentricity":5.97e-5,"inclination_deg":97.2832,"raan_deg":100.9892,"arg_perigee_deg":33.5202,"mean_anomaly_deg":326.6078,"bstar":0.00046842,"rev_number":2566,"period_min":93.905035501803,"perigee_km":465.07780639262,"apogee_km":465.89493502309,"semimajor_km":6843.6233707079,"source":"CELESTRAK","updated_at":"2026-09-20T09:00:43.941351Z"}}